Hourly Weather Bedford

Today, 8 July, Wednesday

Time Temperature Precipitation Wind Pressure Humidity
00:00 +14°C° 0 mm 4 mps 758 mmHg 97%
01:00 +14°C° 1 mm 4 mps 757 mmHg 97%
02:00 +14°C° 1 mm 4 mps 757 mmHg 97%
03:00 +15°C° 1 mm 4 mps 756 mmHg 97%
04:00 +15°C° 0.6 mm 4 mps 756 mmHg 97%
05:00 +15°C° 0.6 mm 4 mps 756 mmHg 97%
06:00 +16°C° 0 mm 3 mps 756 mmHg 96%
07:00 +16°C° 0.3 mm 3 mps 757 mmHg 95%
08:00 +15°C° 0.3 mm 4 mps 757 mmHg 94%
09:00 +17°C° 0.3 mm 4 mps 757 mmHg 94%
10:00 +17°C° 0.2 mm 3 mps 757 mmHg 92%
11:00 +17°C° 0.2 mm 3 mps 757 mmHg 91%
12:00 +18°C° 0.2 mm 3 mps 757 mmHg 90%
13:00 +18°C° 0.2 mm 2 mps 758 mmHg 90%
14:00 +18°C° 0.2 mm 2 mps 758 mmHg 90%
15:00 +18°C° 0.2 mm 2 mps 758 mmHg 90%
16:00 +18°C° 0.2 mm 1 mps 758 mmHg 92%
17:00 +18°C° 0.2 mm 1 mps 758 mmHg 94%
18:00 +16°C° 0.2 mm 1 mps 757 mmHg 96%
19:00 +16°C° 0.4 mm 2 mps 757 mmHg 96%
20:00 +16°C° 0.4 mm 2 mps 757 mmHg 97%
21:00 +16°C° 0.4 mm 3 mps 757 mmHg 98%
22:00 +15°C° 0.3 mm 4 mps 757 mmHg 97%
23:00 +15°C° 0.3 mm 4 mps 757 mmHg 97%

Tomorrow, 9 July, Thursday

Time Temperature Precipitation Wind Pressure Humidity
00:00 +16°C° 0.3 mm 5 mps 757 mmHg 96%
01:00 +15°C° 0.6 mm 5 mps 756 mmHg 95%
02:00 +15°C° 0.6 mm 5 mps 756 mmHg 95%
03:00 +15°C° 0.6 mm 6 mps 755 mmHg 95%
04:00 +15°C° 0.2 mm 6 mps 755 mmHg 94%
05:00 +15°C° 0.2 mm 6 mps 754 mmHg 94%
06:00 +15°C° 0.2 mm 7 mps 754 mmHg 94%
07:00 +16°C° 0 mm 7 mps 754 mmHg 93%
08:00 +16°C° 0 mm 6 mps 754 mmHg 92%
09:00 +17°C° 0 mm 6 mps 755 mmHg 91%
10:00 +17°C° 0.1 mm 6 mps 755 mmHg 89%
11:00 +19°C° 0.1 mm 5 mps 755 mmHg 87%
12:00 +20°C° 0.1 mm 5 mps 755 mmHg 85%
13:00 +19°C° 0.5 mm 5 mps 755 mmHg 87%
14:00 +19°C° 0.5 mm 4 mps 755 mmHg 88%
15:00 +18°C° 0.5 mm 4 mps 755 mmHg 90%
16:00 +17°C° 0.2 mm 4 mps 755 mmHg 91%
17:00 +15°C° 0.2 mm 4 mps 755 mmHg 92%
18:00 +16°C° 0.2 mm 3 mps 755 mmHg 93%
19:00 +14°C° 0.1 mm 3 mps 755 mmHg 94%
20:00 +13°C° 0.1 mm 3 mps 756 mmHg 94%
21:00 +13°C° 0.1 mm 4 mps 756 mmHg 94%
22:00 +13°C° 0 mm 3 mps 756 mmHg 94%
23:00 +12°C° 0 mm 3 mps 756 mmHg 95%

Day after tomorrow, 10 July, Friday

Time Temperature Precipitation Wind Pressure Humidity
00:00 +12°C° 0 mm 3 mps 756 mmHg 95%
01:00 +12°C° 0 mm 3 mps 756 mmHg 95%
02:00 +12°C° 0 mm 3 mps 756 mmHg 94%
03:00 +11°C° 0 mm 3 mps 756 mmHg 94%
04:00 +12°C° 0 mm 3 mps 757 mmHg 93%
05:00 +12°C° 0 mm 4 mps 757 mmHg 92%
06:00 +12°C° 0 mm 4 mps 757 mmHg 91%
07:00 +13°C° 0 mm 4 mps 758 mmHg 84%
08:00 +13°C° 0 mm 5 mps 758 mmHg 77%
09:00 +14°C° 0 mm 6 mps 758 mmHg 71%
10:00 +15°C° 0.1 mm 6 mps 758 mmHg 68%
11:00 +16°C° 0.1 mm 6 mps 759 mmHg 66%
12:00 +17°C° 0.1 mm 6 mps 759 mmHg 64%
13:00 +17°C° 0.3 mm 6 mps 759 mmHg 66%
14:00 +17°C° 0.3 mm 6 mps 759 mmHg 68%
15:00 +17°C° 0.3 mm 7 mps 759 mmHg 70%
16:00 +16°C° 0.4 mm 6 mps 760 mmHg 72%
17:00 +16°C° 0.4 mm 5 mps 760 mmHg 74%
18:00 +15°C° 0.4 mm 5 mps 760 mmHg 77%
19:00 +14°C° 0 mm 4 mps 761 mmHg 79%
20:00 +13°C° 0 mm 4 mps 761 mmHg 81%
21:00 +11°C° 0 mm 4 mps 762 mmHg 84%
22:00 +11°C° 0 mm 4 mps 762 mmHg 85%
23:00 +10°C° 0 mm 4 mps 763 mmHg 87%

11 July, Saturday

Time Temperature Precipitation Wind Pressure Humidity
00:00 +9°C° 0 mm 3 mps 763 mmHg 88%
01:00 +9°C° 0 mm 3 mps 763 mmHg 89%
02:00 +9°C° 0 mm 3 mps 764 mmHg 89%
03:00 +8°C° 0 mm 3 mps 764 mmHg 90%
04:00 +8°C° 0 mm 4 mps 764 mmHg 89%
05:00 +10°C° 0 mm 4 mps 764 mmHg 88%
06:00 +11°C° 0 mm 4 mps 764 mmHg 87%
07:00 +12°C° 0 mm 4 mps 765 mmHg 82%
08:00 +14°C° 0 mm 4 mps 765 mmHg 77%
09:00 +15°C° 0 mm 5 mps 766 mmHg 72%
10:00 +17°C° 0 mm 4 mps 766 mmHg 69%
11:00 +18°C° 0 mm 4 mps 766 mmHg 66%
12:00 +19°C° 0 mm 4 mps 766 mmHg 62%
13:00 +19°C° 0.1 mm 4 mps 766 mmHg 62%
14:00 +20°C° 0.1 mm 4 mps 766 mmHg 61%
15:00 +20°C° 0.1 mm 4 mps 766 mmHg 61%
16:00 +19°C° 0.1 mm 3 mps 766 mmHg 64%
17:00 +19°C° 0.1 mm 3 mps 766 mmHg 67%
18:00 +19°C° 0.1 mm 2 mps 766 mmHg 70%
19:00 +17°C° 0 mm 2 mps 766 mmHg 74%
20:00 +15°C° 0 mm 2 mps 767 mmHg 78%
21:00 +13°C° 0 mm 1 mps 767 mmHg 82%
22:00 +13°C° 0 mm 1 mps 767 mmHg 83%
23:00 +12°C° 0 mm 1 mps 767 mmHg 84%

12 July, Sunday

Time Temperature Precipitation Wind Pressure Humidity
00:00 +11°C° 0 mm 1 mps 767 mmHg 85%
01:00 +11°C° 0 mm 1 mps 767 mmHg 86%
02:00 +11°C° 0 mm 1 mps 767 mmHg 87%
03:00 +10°C° 0 mm 1 mps 767 mmHg 88%
04:00 +10°C° 0 mm 0 mps 767 mmHg 85%
05:00 +11°C° 0 mm 0 mps 767 mmHg 83%
06:00 +12°C° 0 mm 0 mps 767 mmHg 81%
07:00 +14°C° 0 mm 0 mps 767 mmHg 76%
08:00 +16°C° 0 mm 1 mps 767 mmHg 71%
09:00 +19°C° 0 mm 1 mps 767 mmHg 66%
10:00 +20°C° 0 mm 1 mps 767 mmHg 62%
11:00 +20°C° 0 mm 2 mps 767 mmHg 58%
12:00 +21°C° 0 mm 2 mps 767 mmHg 54%
13:00 +21°C° 0 mm 2 mps 767 mmHg 53%
14:00 +21°C° 0 mm 2 mps 767 mmHg 53%
15:00 +23°C° 0 mm 2 mps 766 mmHg 52%
16:00 +23°C° 0 mm 2 mps 766 mmHg 57%
17:00 +21°C° 0 mm 2 mps 766 mmHg 62%
18:00 +21°C° 0 mm 2 mps 766 mmHg 67%
19:00 +19°C° 0 mm 2 mps 766 mmHg 70%
20:00 +18°C° 0 mm 1 mps 766 mmHg 74%
21:00 +15°C° 0 mm 1 mps 766 mmHg 77%
22:00 +15°C° 0 mm 1 mps 766 mmHg 78%
23:00 +14°C° 0 mm 1 mps 766 mmHg 79%

13 July, Monday

Time Temperature Precipitation Wind Pressure Humidity
00:00 +14°C° 0 mm 1 mps 765 mmHg 80%
01:00 +13°C° 0 mm 2 mps 765 mmHg 82%
02:00 +13°C° 0 mm 2 mps 765 mmHg 85%
03:00 +12°C° 0 mm 2 mps 764 mmHg 87%
04:00 +13°C° 0 mm 2 mps 764 mmHg 87%
05:00 +13°C° 0 mm 2 mps 764 mmHg 86%
06:00 +14°C° 0 mm 2 mps 764 mmHg 85%
07:00 +15°C° 0 mm 2 mps 764 mmHg 80%
08:00 +16°C° 0 mm 3 mps 764 mmHg 74%
09:00 +17°C° 0 mm 3 mps 763 mmHg 69%
10:00 +17°C° 0 mm 3 mps 763 mmHg 71%
11:00 +17°C° 0 mm 3 mps 763 mmHg 73%
12:00 +16°C° 0 mm 2 mps 763 mmHg 75%
13:00 +17°C° 0 mm 3 mps 763 mmHg 72%
14:00 +18°C° 0 mm 3 mps 762 mmHg 70%
15:00 +18°C° 0 mm 4 mps 762 mmHg 67%
16:00 +18°C° 0 mm 4 mps 761 mmHg 70%
17:00 +18°C° 0 mm 4 mps 761 mmHg 74%
18:00 +17°C° 0 mm 5 mps 761 mmHg 77%
19:00 +17°C° 0.1 mm 4 mps 761 mmHg 82%
20:00 +15°C° 0.1 mm 4 mps 761 mmHg 87%
21:00 +14°C° 0.1 mm 3 mps 761 mmHg 91%
22:00 +13°C° 0 mm 3 mps 761 mmHg 92%
23:00 +12°C° 0 mm 3 mps 761 mmHg 93%
Show more